Location: Prague
(50.0830°N, 14.4670°E)
Time: 22:15:34
(UTC+01:00)

BEESAT 2 - Pass Details

Date: 15 December 2021
Orbit: 498 x 513 km, 64.9° (Epoch: 22 January)

Event Time Altitude Azimuth Distance (km) Brightness Sun altitude
Rises 18:54:51 0° 206° (SSW) 2,608 ? -26.7°
Reaches altitude 10° 18:57:02 10° 201° (SSW) 1,729 ? -27.1°
Enters shadow 18:57:46 15° 198° (SSW) 1,444 ? -27.2°
